GW5072 Weather Reports


time (UTC)temp
C
wind
direction
speed
KPH
gust
KPH
rain 1hr
cm
rain 24hr
cm
rain mn
cm
humidity
%
barometer
mb
20260906181514 27 207 0.0 0.0 0.66 0.71 0.66 94 1014.4
20260906181007 26 207 0.0 0.0 0.66 0.71 0.66 94 1014.3
20260906180509 26 207 0.0 0.0 0.66 0.71 0.66 93 1014.3
20260906180013 26 203 0.0 0.0 0.64 0.69 0.64 93 1014.3
20260906175507 26 236 0.0 0.0 0.61 0.66 0.61 93 1014.3
20260906175005 26 236 0.0 0.0 0.58 0.64 0.58 92 1014.3
20260906174507 26 231 0.0 1.6 0.51 0.56 0.51 90 1014.2
20260906174008 26 226 0.0 1.6 0.41 0.46 0.41 89 1014.4
20260906173507 27 203 0.0 0.0 0.25 0.30 0.25 87 1014.7
20260906173012 27 107 0.0 0.0 0.08 0.13 0.08 85 1014.8
20260906172507 27 217 0.0 0.0 0.00 0.05 0.00 83 1014.9
20260906172007 28 227 0.0 0.0 0.00 0.05 0.00 83 1014.9
20260906171513 28 228 0.0 0.0 0.00 0.05 0.00 82 1015.0
20260906171007 28 228 0.0 0.0 0.00 0.05 0.00 82 1015.0
20260906170506 28 229 0.0 0.0 0.00 0.05 0.00 80 1015.0
20260906170015 28 217 0.0 0.0 0.00 0.05 0.00 82 1014.9
20260906165509 28 217 0.0 0.0 0.00 0.05 0.00 81 1014.8
20260906165009 28 217 0.0 1.6 0.00 0.05 0.00 80 1014.7
20260906164515 29 220 0.0 1.6 0.00 0.05 0.00 83 1014.9
20260906164004 29 207 0.0 0.0 0.00 0.05 0.00 84 1014.9
20260906163507 29 207 0.0 0.0 0.00 0.05 0.00 84 1014.9
20260906163018 29 207 0.0 0.0 0.00 0.05 0.00 83 1014.9
20260906162508 29 207 0.0 0.0 0.00 0.05 0.00 84 1014.9
20260906162007 29 207 0.0 0.0 0.00 0.05 0.00 86 1014.9
20260906161519 29 205 0.0 0.0 0.00 0.05 0.00 87 1014.9
20260906161011 29 205 0.0 0.0 0.00 0.05 0.00 85 1014.7
20260906160507 29 205 0.0 0.0 0.00 0.05 0.00 85 1014.8
20260906160014 29 205 0.0 0.0 0.00 0.05 0.00 87 1014.8
20260906155508 29 206 0.0 0.0 0.00 0.05 0.00 86 1014.9
20260906155007 29 206 0.0 0.0 0.00 0.05 0.00 84 1014.9
20260906154520 29 65 0.0 0.0 0.00 0.05 0.00 85 1014.8
20260906154010 29 71 0.0 0.0 0.00 0.05 0.00 84 1014.8
20260906153509 29 181 0.0 0.0 0.00 0.05 0.00 86 1014.8
20260906153020 28 132 0.0 0.0 0.00 0.05 0.00 87 1014.8
20260906152511 28 133 0.0 0.0 0.00 0.05 0.00 87 1014.9
20260906152005 28 134 0.0 0.0 0.00 0.05 0.00 88 1014.9
20260906151518 28 133 0.0 0.0 0.00 0.05 0.00 89 1014.8
20260906151007 28 229 0.0 0.0 0.00 0.05 0.00 89 1014.8
20260906150511 27 229 0.0 0.0 0.00 0.05 0.00 91 1014.8
20260906150024 27 230 0.0 0.0 0.00 0.05 0.00 91 1014.9
20260906145506 27 225 0.0 1.6 0.00 0.05 0.00 91 1014.9
20260906145009 27 221 0.0 1.6 0.00 0.05 0.00 92 1014.9
20260906144526 27 218 0.0 1.6 0.00 0.05 0.00 93 1014.9
20260906144009 27 84 0.0 0.0 0.00 0.05 0.00 94 1014.7
20260906143510 26 84 0.0 0.0 0.00 0.05 0.00 95 1014.7
20260906143029 26 78 0.0 0.0 0.00 0.05 0.00 95 1014.7
20260906142511 26 77 0.0 0.0 0.00 0.05 0.00 95 1014.6
20260906142014 26 78 0.0 0.0 0.00 0.05 0.00 95 1014.6
20260906141519 26 77 0.0 0.0 0.00 0.05 0.00 95 1014.6
20260906141011 26 77 0.0 0.0 0.00 0.05 0.00 96 1014.7
20260906140511 26 77 0.0 0.0 0.00 0.05 0.00 96 1014.7
20260906140027 26 77 0.0 0.0 0.00 0.05 0.00 96 1014.6
20260906135506 26 78 0.0 0.0 0.00 0.05 0.00 96 1014.6
20260906135012 25 78 0.0 0.0 0.00 0.05 0.00 97 1014.6
20260906134512 25 78 0.0 0.0 0.00 0.05 0.00 97 1014.6
20260906134003 25 77 0.0 0.0 0.00 0.05 0.00 97 1014.5
20260906133507 25 77 0.0 0.0 0.00 0.05 0.00 97 1014.5
20260906133008 25 78 0.0 0.0 0.00 0.05 0.00 97 1014.4
20260906132505 25 77 0.0 0.0 0.00 0.05 0.00 97 1014.5
20260906132007 24 77 0.0 0.0 0.00 0.05 0.00 97 1014.4
20260906131506 24 77 0.0 0.0 0.00 0.05 0.00 97 1014.3
20260906131009 24 77 0.0 0.0 0.00 0.05 0.00 97 1014.2
20260906130507 24 78 0.0 0.0 0.00 0.05 0.00 97 1014.1
20260906130005 24 77 0.0 0.0 0.00 0.08 0.00 97 1014.1
20260906125510 23 78 0.0 0.0 0.00 0.08 0.00 97 1014.1
20260906125002 23 78 0.0 0.0 0.00 0.08 0.00 97 1014.2
20260906124527 23 78 0.0 0.0 0.00 0.08 0.00 96 1014.0
20260906124006 23 77 0.0 0.0 0.00 0.08 0.00 96 1014.0
20260906123504 23 78 0.0 0.0 0.00 0.08 0.00 96 1013.9
20260906123024 23 77 0.0 0.0 0.00 0.08 0.00 96 1013.9
20260906122506 23 78 0.0 0.0 0.00 0.08 0.00 96 1013.9
20260906122004 23 78 0.0 0.0 0.00 0.08 0.00 96 1013.7
20260906121520 23 77 0.0 0.0 0.00 0.08 0.00 96 1013.6
20260906121005 23 77 0.0 0.0 0.00 0.08 0.00 96 1013.6
20260906120513 23 77 0.0 0.0 0.00 0.08 0.00 96 1013.5
20260906120018 23 77 0.0 0.0 0.00 0.08 0.00 96 1013.5
20260906115505 23 78 0.0 0.0 0.00 0.08 0.00 96 1013.5
20260906115012 23 77 0.0 0.0 0.00 0.08 0.00 96 1013.4
20260906114514 23 78 0.0 0.0 0.00 0.08 0.00 96 1013.3
20260906114003 23 78 0.0 0.0 0.00 0.08 0.00 96 1013.3
20260906113508 23 77 0.0 0.0 0.00 0.08 0.00 96 1013.3
20260906113010 23 77 0.0 0.0 0.00 0.08 0.00 96 1013.3
20260906112511 23 78 0.0 0.0 0.00 0.08 0.00 96 1013.3
20260906112010 23 77 0.0 0.0 0.00 0.08 0.00 96 1013.1
20260906111515 23 78 0.0 0.0 0.00 0.08 0.00 96 1013.0
20260906111012 23 77 0.0 0.0 0.00 0.08 0.00 96 1013.0
20260906110507 23 77 0.0 0.0 0.00 0.08 0.00 96 1013.0
20260906110007 23 78 0.0 0.0 0.00 0.08 0.00 96 1013.0
20260906105511 23 78 0.0 0.0 0.00 0.08 0.00 96 1013.0
20260906105007 23 77 0.0 0.0 0.00 0.08 0.00 96 1012.9
20260906104534 23 78 0.0 0.0 0.00 0.08 0.00 96 1012.9
20260906104008 23 78 0.0 0.0 0.00 0.08 0.00 96 1012.9
20260906103502 23 77 0.0 0.0 0.00 0.08 0.00 96 1012.8
20260906103024 23 77 0.0 0.0 0.00 0.08 0.00 96 1012.8
20260906102507 23 77 0.0 0.0 0.00 0.08 0.00 95 1012.8
20260906102014 23 78 0.0 0.0 0.00 0.08 0.00 95 1012.7
20260906101523 24 77 0.0 0.0 0.00 0.08 0.00 96 1012.6
20260906101003 24 78 0.0 0.0 0.00 0.08 0.00 95 1012.5
20260906100518 24 78 0.0 0.0 0.00 0.08 0.00 95 1012.5
20260906100019 24 78 0.0 0.0 0.00 0.08 0.00 95 1012.5
20260906095506 24 78 0.0 0.0 0.00 0.08 0.00 95 1012.6
20260906095012 24 78 0.0 0.0 0.00 0.08 0.00 95 1012.6
20260906094533 24 77 0.0 0.0 0.00 0.08 0.00 95 1012.6
20260906094018 24 78 0.0 0.0 0.00 0.08 0.00 95 1012.7
20260906093515 24 78 0.0 0.0 0.00 0.08 0.00 95 1012.7
20260906093023 24 78 0.0 0.0 0.00 0.08 0.00 96 1012.8
20260906092514 24 77 0.0 0.0 0.00 0.08 0.00 95 1012.7
20260906092012 24 77 0.0 0.0 0.00 0.08 0.00 95 1012.7
20260906091511 24 78 0.0 0.0 0.00 0.08 0.00 95 1012.6
20260906091014 24 77 0.0 0.0 0.00 0.08 0.00 95 1012.5
20260906090507 24 77 0.0 0.0 0.00 0.08 0.00 95 1012.3
20260906090030 24 78 0.0 0.0 0.00 0.08 0.00 95 1012.5
20260906085511 24 77 0.0 0.0 0.00 0.08 0.00 95 1012.4
20260906085007 24 77 0.0 0.0 0.00 0.08 0.00 95 1012.4
20260906084544 24 77 0.0 0.0 0.00 0.08 0.00 95 1012.3
20260906084010 25 77 0.0 0.0 0.00 0.08 0.00 95 1012.3
20260906083517 24 77 0.0 0.0 0.00 0.08 0.00 95 1012.2
20260906083034 24 77 0.0 0.0 0.00 0.08 0.00 95 1012.4
20260906082507 24 78 0.0 0.0 0.00 0.08 0.00 95 1012.5
20260906082014 24 78 0.0 0.0 0.00 0.08 0.00 95 1012.5
20260906081524 24 78 0.0 0.0 0.00 0.08 0.00 95 1012.6
20260906081007 24 77 0.0 0.0 0.00 0.08 0.00 95 1012.6
20260906080515 24 78 0.0 0.0 0.00 0.08 0.00 95 1012.5
20260906080028 24 77 0.0 0.0 0.00 0.08 0.00 95 1012.4
20260906075520 24 78 0.0 0.0 0.00 0.08 0.00 95 1012.5
20260906075011 24 77 0.0 0.0 0.00 0.08 0.00 95 1012.5
20260906074516 24 77 0.0 0.0 0.00 0.08 0.00 95 1012.6
20260906074013 25 77 0.0 0.0 0.00 0.08 0.00 95 1012.6
20260906073512 25 78 0.0 0.0 0.00 0.08 0.00 96 1012.7
20260906073014 24 78 0.0 0.0 0.00 0.08 0.00 95 1012.6
20260906072514 24 78 0.0 0.0 0.00 0.08 0.00 96 1012.7
20260906072008 24 77 0.0 0.0 0.00 0.08 0.00 96 1012.7
20260906071532 24 77 0.0 0.0 0.00 0.08 0.00 96 1012.8
20260906071014 24 77 0.0 0.0 0.00 0.08 0.00 95 1012.8
20260906070511 24 77 0.0 0.0 0.00 0.08 0.00 95 1012.8
20260906070031 24 78 0.0 0.0 0.00 0.08 0.00 95 1012.8
20260906065516 24 77 0.0 0.0 0.00 0.08 0.00 95 1012.9
20260906065006 24 77 0.0 0.0 0.00 0.08 0.00 95 1012.8
20260906064532 24 78 0.0 0.0 0.00 0.08 0.00 95 1012.7
20260906064011 24 77 0.0 0.0 0.00 0.08 0.00 95 1012.9
20260906063516 24 78 0.0 0.0 0.00 0.08 0.00 95 1013.0
20260906063026 24 78 0.0 0.0 0.00 0.08 0.00 95 1013.0
20260906062510 24 78 0.0 0.0 0.00 0.08 0.00 95 1012.9
20260906062014 24 78 0.0 0.0 0.00 0.08 0.00 95 1013.1
20260906061527 24 78 0.0 0.0 0.00 0.08 0.00 95 1013.0
20260906061018 24 77 0.0 0.0 0.00 0.08 0.00 95 1012.9
20260906060517 24 77 0.0 0.0 0.00 0.08 0.00 95 1012.8
20260906060027 24 77 0.0 0.0 0.00 0.08 0.00 95 1013.0
20260906055517 24 78 0.0 0.0 0.00 0.08 0.00 95 1012.9
20260906055013 24 78 0.0 0.0 0.00 0.08 0.00 95 1013.0
20260906054517 24 78 0.0 0.0 0.00 0.08 0.00 95 1013.2
20260906054015 24 78 0.0 0.0 0.00 0.08 0.00 95 1013.2
20260906053513 24 78 0.0 0.0 0.00 0.08 0.00 95 1013.1
20260906053033 24 77 0.0 0.0 0.00 0.08 0.00 95 1013.1
20260906052517 24 77 0.0 0.0 0.00 0.08 0.00 95 1013.2
20260906052010 24 78 0.0 0.0 0.00 0.08 0.00 95 1013.1
20260906051533 23 78 0.0 0.0 0.00 0.08 0.00 95 1012.9
20260906051012 23 77 0.0 0.0 0.00 0.08 0.00 95 1012.9
20260906050508 23 77 0.0 0.0 0.00 0.08 0.00 95 1013.1
20260906050009 23 77 0.0 0.0 0.00 0.08 0.00 94 1013.0
20260906045504 23 77 0.0 0.0 0.00 0.08 0.08 94 1012.9
20260906045009 23 78 0.0 0.0 0.00 0.08 0.08 94 1013.1
20260906044508 24 78 0.0 0.0 0.00 0.08 0.08 94 1013.0
20260906044012 24 78 0.0 0.0 0.00 0.08 0.08 94 1012.9
20260906043506 24 78 0.0 0.0 0.00 0.08 0.08 94 1012.9
20260906043004 24 77 0.0 0.0 0.00 0.08 0.08 94 1013.0
20260906042507 24 77 0.0 0.0 0.00 0.08 0.08 94 1012.9
20260906042006 24 78 0.0 0.0 0.00 0.08 0.08 94 1012.9
20260906041527 24 77 0.0 0.0 0.00 0.08 0.08 94 1013.0
20260906041013 24 78 0.0 0.0 0.00 0.08 0.08 94 1013.0
20260906040503 24 78 0.0 0.0 0.00 0.08 0.08 94 1013.0
20260906040030 24 77 0.0 0.0 0.00 0.08 0.08 94 1013.1
20260906035508 24 78 0.0 0.0 0.00 0.08 0.08 94 1013.1
20260906035004 24 77 0.0 0.0 0.00 0.08 0.08 93 1013.0
20260906034532 24 78 0.0 0.0 0.00 0.08 0.08 93 1013.1
20260906034002 24 77 0.0 0.0 0.00 0.08 0.08 93 1013.2
20260906033514 24 77 0.0 0.0 0.00 0.08 0.08 93 1013.2
20260906033025 25 78 0.0 0.0 0.00 0.08 0.08 93 1013.1
20260906032502 25 77 0.0 0.0 0.00 0.08 0.08 93 1013.1
20260906032012 25 78 0.0 0.0 0.00 0.08 0.08 92 1013.1
20260906031513 25 78 0.0 0.0 0.00 0.08 0.08 92 1013.1
20260906031003 25 78 0.0 0.0 0.00 0.08 0.08 92 1013.1
20260906030510 25 77 0.0 0.0 0.00 0.08 0.08 92 1013.1
20260906030009 25 78 0.0 0.0 0.00 0.08 0.08 92 1013.0
20260906025513 25 78 0.0 0.0 0.00 0.08 0.08 92 1013.0
20260906025009 25 78 0.0 0.0 0.00 0.08 0.08 92 1012.9
20260906024511 25 78 0.0 0.0 0.00 0.08 0.08 92 1012.8
20260906024012 25 78 0.0 0.0 0.00 0.08 0.08 92 1012.8
20260906023508 25 77 0.0 1.6 0.00 0.08 0.08 92 1012.7
20260906023005 25 77 0.0 1.6 0.00 0.08 0.08 92 1012.7
20260906022512 25 259 0.0 0.0 0.00 0.08 0.08 92 1012.7
20260906022004 25 259 0.0 0.0 0.00 0.08 0.08 92 1012.5
20260906021530 25 259 0.0 0.0 0.00 0.08 0.08 92 1012.4
20260906021009 25 259 0.0 0.0 0.00 0.08 0.08 93 1012.3
20260906020505 25 259 0.0 0.0 0.00 0.08 0.08 93 1012.3
20260906020028 25 259 0.0 0.0 0.00 0.08 0.08 93 1012.2
20260906015509 25 259 0.0 0.0 0.00 0.08 0.08 93 1012.1
20260906015014 25 259 0.0 0.0 0.00 0.08 0.08 93 1012.1
20260906014535 25 259 0.0 0.0 0.00 0.08 0.08 93 1012.1
20260906014008 25 258 0.0 0.0 0.00 0.08 0.08 93 1012.0
20260906013514 25 259 0.0 0.0 0.00 0.08 0.08 93 1012.0
20260906013020 25 259 0.0 0.0 0.00 0.08 0.08 93 1012.0
20260906012504 25 258 0.0 0.0 0.00 0.08 0.08 93 1012.0
20260906012012 25 258 0.0 0.0 0.00 0.08 0.08 93 1011.8
20260906011531 25 258 0.0 0.0 0.00 0.08 0.08 93 1011.9
20260906011014 25 258 0.0 0.0 0.00 0.08 0.08 92 1011.9
20260906010510 25 258 0.0 0.0 0.00 0.08 0.08 92 1011.8
20260906010013 25 258 0.0 0.0 0.00 0.08 0.08 92 1011.8
20260906005512 25 258 0.0 0.0 0.00 0.08 0.08 92 1011.9
20260906005013 25 258 0.0 0.0 0.00 0.08 0.08 92 1011.9
20260906004509 25 258 0.0 0.0 0.00 0.08 0.08 92 1012.0
20260906004012 25 258 0.0 0.0 0.00 0.08 0.08 92 1012.1
20260906003508 25 258 0.0 0.0 0.00 0.08 0.08 92 1012.2
20260906003045 25 258 0.0 0.0 0.00 0.08 0.08 92 1012.1
20260906002510 25 258 0.0 0.0 0.00 0.08 0.08 92 1012.1
20260906002009 25 258 0.0 0.0 0.00 0.08 0.08 92 1012.3
20260906001529 25 258 0.0 0.0 0.00 0.08 0.08 92 1012.4
20260906001009 25 258 0.0 0.0 0.00 0.08 0.08 92 1012.4
20260906000520 26 258 0.0 0.0 0.00 0.08 0.08 92 1012.5
20260906000027 26 258 0.0 0.0 0.00 0.08 0.08 93 1012.5
20260905235506 26 258 0.0 0.0 0.00 0.08 0.08 93 1012.5
20260905235017 26 259 0.0 0.0 0.00 0.08 0.08 93 1012.5
20260905234523 26 259 0.0 0.0 0.03 0.08 0.08 93 1012.5
20260905234006 26 258 0.0 0.0 0.03 0.08 0.08 93 1012.5
20260905233516 26 257 0.0 0.0 0.03 0.08 0.08 92 1012.5
20260905233022 26 257 0.0 0.0 0.03 0.08 0.08 92 1012.5
20260905232517 26 257 0.0 0.0 0.03 0.08 0.08 92 1012.6
20260905232013 26 257 0.0 0.0 0.03 0.08 0.08 92 1012.6
20260905231515 26 327 0.0 0.0 0.03 0.08 0.08 92 1012.6
20260905231016 26 327 0.0 0.0 0.05 0.08 0.08 92 1012.6
20260905230510 26 327 0.0 0.0 0.05 0.08 0.08 91 1012.6
20260905230015 26 327 0.0 0.0 0.05 0.08 0.08 91 1012.5
20260905225516 26 327 0.0 0.0 0.05 0.08 0.08 89 1012.3
20260905225013 26 327 0.0 0.0 0.05 0.08 0.08 89 1012.5
20260905224533 26 327 0.0 0.0 0.03 0.05 0.05 90 1012.6
20260905224013 26 327 0.0 0.0 0.03 0.05 0.05 88 1012.5
20260905223508 26 328 0.0 0.0 0.03 0.05 0.05 88 1012.5
20260905223029 26 328 0.0 0.0 0.03 0.05 0.05 87 1012.5
20260905222514 26 328 0.0 1.6 0.03 0.05 0.05 87 1012.3
20260905222007 27 328 0.0 1.6 0.03 0.05 0.05 85 1012.3
20260905221530 27 321 0.0 1.6 0.03 0.05 0.05 84 1012.5
20260905221010 28 268 0.0 0.0 0.00 0.03 0.03 81 1012.5
20260905220513 28 335 0.0 0.0 0.00 0.03 0.03 79 1012.5
20260905220029 30 288 0.0 0.0 0.00 0.03 0.03 75 1012.4
20260905215508 31 260 0.0 1.6 0.00 0.03 0.03 71 1012.4
20260905215013 31 94 0.0 1.6 0.00 0.03 0.03 66 1012.3
20260905214524 32 89 0.0 3.2 0.00 0.03 0.03 65 1012.1
20260905214016 32 98 0.0 3.2 0.00 0.03 0.03 63 1011.9
20260905213518 33 87 0.0 3.2 0.00 0.03 0.03 61 1011.7
20260905213037 33 89 0.0 3.2 0.00 0.03 0.03 60 1011.8
20260905212521 33 89 0.0 3.2 0.00 0.03 0.03 59 1011.9
20260905212011 33 67 0.0 0.0 0.00 0.03 0.03 58 1011.9
20260905211519 33 66 0.0 0.0 0.00 0.03 0.03 60 1011.8
20260905211015 34 66 0.0 0.0 0.00 0.03 0.03 55 1011.9
20260905210512 34 66 0.0 0.0 0.00 0.03 0.03 56 1011.9
20260905210033 35 66 0.0 1.6 0.00 0.03 0.03 56 1011.9
20260905205517 35 63 0.0 1.6 0.00 0.03 0.03 54 1012.0
20260905205013 35 318 0.0 6.4 0.00 0.03 0.03 53 1011.8
20260905204532 35 360 0.0 6.4 0.00 0.03 0.03 54 1011.8
20260905204014 35 338 0.0 3.2 0.00 0.03 0.03 54 1011.8
20260905203515 35 3 0.0 0.0 0.00 0.03 0.03 56 1011.9
20260905203034 36 354 0.0 0.0 0.00 0.03 0.03 53 1012.0
20260905202512 37 355 0.0 1.6 0.00 0.03 0.03 50 1012.1
20260905202016 37 342 0.0 1.6 0.00 0.03 0.03 49 1012.1
20260905201528 37 221 0.0 1.6 0.00 0.03 0.03 48 1012.1
20260905201015 36 327 0.0 1.6 0.00 0.03 0.03 51 1012.2
20260905200519 36 56 0.0 1.6 0.00 0.03 0.03 54 1012.3
20260905200006 36 77 0.0 1.6 0.00 0.03 0.03 53 1012.4
20260905195508 36 84 0.0 1.6 0.00 0.03 0.03 50 1012.4
20260905195006 36 112 0.0 1.6 0.00 0.03 0.03 51 1012.4
20260905194526 36 244 0.0 1.6 0.00 0.03 0.03 53 1012.3
20260905194009 36 103 0.0 4.8 0.00 0.03 0.03 53 1012.4
20260905193505 36 2 0.0 4.8 0.00 0.03 0.03 51 1012.6
20260905193025 36 130 1.6 4.8 0.00 0.03 0.03 49 1012.7
20260905192506 37 281 0.0 4.8 0.00 0.03 0.03 50 1012.8
20260905192004 36 281 0.0 1.6 0.00 0.03 0.03 51 1012.8
20260905191520 37 60 0.0 1.6 0.00 0.03 0.03 48 1013.0
20260905191003 37 297 0.0 1.6 0.00 0.03 0.03 50 1013.1
20260905190511 37 214 0.0 1.6 0.00 0.03 0.03 50 1013.1
20260905190018 37 341 0.0 1.6 0.00 0.03 0.03 53 1013.1
20260905185503 36 233 0.0 1.6 0.00 0.03 0.03 53 1013.2
20260905185011 37 21 0.0 1.6 0.00 0.03 0.03 52 1013.2
20260905184513 37 238 0.0 0.0 0.00 0.03 0.03 54 1013.2
20260905184015 36 212 0.0 0.0 0.00 0.03 0.03 53 1013.3
20260905183510 36 252 0.0 0.0 0.00 0.03 0.03 56 1013.4
20260905183008 36 252 0.0 0.0 0.00 0.03 0.03 56 1013.5
20260905182514 36 224 0.0 1.6 0.00 0.03 0.03 58 1013.5
20260905182006 36 219 0.0 1.6 0.00 0.03 0.03 60 1013.6